User: anonymous   Login
Location: Tarrant
(32.8168°N, 97.0772°W)
Time: 04:39:17
(UTC+00:00)
Language:

Cosmos 1809 Rocket - Orbit

View from above orbital plane
View from above orbital plane
View from above satellite
View from above satellite

Ground track
Ground track

The orbit data is extracted from the following two-line orbital elements,

1 17242U 86101B   24060.57505486  .00000027  00000-0  11399-4 0  9990
2 17242  82.5276 236.8821 0015730  33.6157  31.8685 13.83337273877956
Epoch (UTC): 29 February 2024 13:48:04
Eccentricity: 0.0015730
inclination: 82.5276°
perigee height: 940 km
apogee height: 963 km
right ascension of ascending node: 236.8821°
argument of perigee: 33.6157°
revolutions per day: 13.83337273
mean anomaly at epoch: 31.8685°
orbit number at epoch: 87795

The dashed part of the orbit path shows where the satellite is in the earth's shadow,  

DLR